Tracking 19176 objects as of 26-May-2018
HD Live streaming from Space Station
objects crossing your sky now

EKRAN 7

Track EKRAN 7 now!
EKRAN 7 is classified as:


NORAD ID: 12564
Int'l Code: 1981-061A
Perigee: 35,779.4 km
Apogee: 35,822.7 km
Inclination: 12.8 °
Period: 1,436.5 minutes
Semi major axis: 42172 km
RCS: 3.9811 m2 (large)
Launch date: June 26, 1981
Source: Commonwealth of Independent States (former USSR) (CIS)
Launch site: TYURATAM MISSILE AND SPACE COMPLEX (TTMTR)
aabbcc
Your satellite tracking list
Your tracking list is empty




NASA's NSSDC Master Catalog

Two Line Element Set (TLE):
1 12564U 81061A   18145.58369316 +.00000065 +00000-0 +00000-0 0  9995
2 12564 012.8112 324.2157 0005132 005.6825 175.7529 01.00245777099980
Source of the keplerian elements: AFSPC